Flag for Canada Weather past 2 weeks in Toronto, Ontario, Canada

Now
5 °F

Clear.


Feels Like: -4 °F
Forecast: 7 / 22 °F
Wind: 5 mph from West

Location: Toronto Pearson International Airport

Current Time: Feb 27, 2015 at 9:42:27 PM

Latest Report: Feb 27, 2015 at 9:00 PM


Visibility: 15 mi

Pressure: 30.64 "Hg

Humidity: 66%

Dew point: -4 °F

Location of TorontoLocation

Historic Weather in Toronto — Graph

°F

Toronto temperature yesterday

Maximum temperature yesterday: 12 °F (at 1:00 PM)
Minimum temperature yesterday: 1 °F (at 3:00 AM)
Average temperature yesterday: 6 °F

Past Weeks' High & Low Weather Summary

 TemperatureHumidityPressure
High25 °F (Feb 22, 2:00 PM)93% (Feb 21, 7:00 PM)30.63 "Hg (Feb 21, 7:00 PM)
Low-13 °F (Feb 15, 6:00 AM)24% (Feb 17, 3:00 PM)29.57 "Hg (Feb 14, 10:00 AM)
Average6 °F64%30.12 "Hg
* Reported Feb 12 8:00 PM — Feb 27 8:00 PM, Toronto, Weather by CustomWeather, © 2015

Note: Actual official high and low records may vary slightly from our data, if they occured in-between our weather recording intervals... More about our weather records

Advertising

Toronto weather history for previous 24 hours

 ConditionsComfort  
Time TempWeatherWind HumidityBarometerVisibility
8:00 PM
Fri, Feb 27
7 °FClear.9 mph61%30.63 "Hg15 mi
7:00 PM9 °FClear.14 mph56%30.61 "Hg15 mi
6:00 PM10 °FPassing clouds.14 mph56%30.60 "Hg15 mi
5:00 PM12 °FPassing clouds.17 mph57%30.58 "Hg15 mi
4:00 PM12 °FScattered clouds.16 mph57%30.56 "Hg15 mi
3:00 PM14 °FScattered clouds.17 mph52%30.54 "Hg15 mi
2:00 PM14 °FScattered clouds.13 mph52%30.53 "Hg15 mi
1:00 PM12 °FScattered clouds.13 mph57%30.53 "Hg15 mi
12:00 PM12 °FScattered clouds.13 mph57%30.53 "Hg15 mi
11:00 AM10 °FPassing clouds.12 mph56%30.52 "Hg15 mi
10:00 AM9 °FScattered clouds.14 mph56%30.51 "Hg15 mi
9:00 AM5 °FBroken clouds.8 mph66%30.50 "Hg15 mi
8:00 AM0 °FBroken clouds.7 mph71%30.48 "Hg15 mi
7:00 AM-2 °FPartly sunny.8 mph71%30.45 "Hg15 mi
6:00 AM-4 °FClear.6 mph77%30.43 "Hg15 mi
5:00 AM-2 °FClear.7 mph71%30.40 "Hg15 mi
4:00 AM-2 °FPassing clouds.7 mph71%30.37 "Hg15 mi
3:00 AM0 °FPassing clouds.7 mph65%30.37 "Hg15 mi
2:00 AM0 °FPassing clouds.8 mph65%30.36 "Hg15 mi
1:00 AM0 °FPassing clouds.7 mph65%30.34 "Hg15 mi
12:00 AM1 °FPassing clouds.9 mph65%30.33 "Hg15 mi
11:00 PM
Thu, Feb 26
3 °FPassing clouds.10 mph60%30.32 "Hg15 mi
10:00 PM5 °FOvercast.13 mph60%30.30 "Hg15 mi
9:00 PM5 °FPartly cloudy.13 mph55%30.29 "Hg15 mi
Weather by CustomWeather, © 2015

See weather overviewHow to use our weather pages